World > North America > United States > Michigan

Harbor Beach, Michigan Regional Weather

Lat: 43.85N, Lon: 82.65W
Wx Zone: MIZ049
Warning NWS WEATHER ALERT - (More Info. Click Here) Warning
Feedback

Harbor Beach, MI Regional Weather

Expires:202002172300;;692782
ASUS43 KDTX 172210
RWRMI 
MICHIGAN HOURLY REGIONAL WEATHER ROUNDUP
NATIONAL WEATHER SERVICE DETROIT/PONTIAC MI
500 PM EST MON FEB 17 2020

NOTE: "FAIR" INDICATES FEW OR NO CLOUDS BELOW 12,000 FEET WITH NO
SIGNIFICANT WEATHER AND/OR OBSTRUCTION TO VISIBILITY.


MIZ047>049-052>055-059>063-066>070-074>076-081>083-172300-
SOUTHEAST LOWER MICHIGAN
  
CITY           SKY/WX    TMP DP  RH WIND       PRES   REMARKS
ADRIAN         CLOUDY    32  26  78 E10       30.12F WCI  24          
ALMA           CLOUDY    31  21  65 E8        30.13S WCI  24          
ANN ARBOR      CLOUDY    33  23  66 E9G20     30.12F WCI  25          
BAD AXE        FLURRIES  28  22  78 SE6       30.18F WCI  22          
CARO           LGT SNOW  30  26  83 E9        30.16S WCI  22          
DETROIT CITY   CLOUDY    32  24  72 E14       30.17F WCI  22          
DETROIT        CLOUDY    32  24  72 E9        30.15F WCI  24          
FLINT          CLOUDY    33  21  61 SE12      30.14F WCI  24          
GROSSE ILE     CLOUDY    32  27  80 E7        30.14F WCI  26          
HILLSDALE      CLOUDY    32  26  80 E8        30.07F WCI  24          
HOWELL         CLOUDY    32  23  68 E8        30.12S WCI  25          

CITY           SKY/WX    TMP DP  RH WIND       PRES   REMARKS
JACKSON        CLOUDY    33  23  66 E10       30.09S WCI  25          
LAMBERTVILLE   CLOUDY    32  27  80 E9        30.12F WCI  24          
LANSING        CLOUDY    33  21  61 SE7       30.12R WCI  27          
LAPEER         CLOUDY    32  19  59 SE7       30.16F WCI  26          
MASON          CLOUDY    32  23  69 SE10      30.11R WCI  24          
MONROE         CLOUDY    33  22  63 E5        30.12F WCI  28          
MT. CLEMENS    FAIR      32  28  85 E10       30.16F WCI  24          
PONTIAC        CLOUDY    31  21  66 E9        30.13F WCI  23          
PORT HOPE        N/A     29  20  69 SE10      30.19S WCI  20          
PORT HURON     CLOUDY    34  23  64 E8        30.19F WCI  27          
TRI CITIES     LGT SNOW  30  23  75 E13       30.16S WCI  20          
MIDLAND        LGT SNOW  28  24  83 E8        30.16S WCI  20          
TROY           CLOUDY    32  24  72 E8G16     30.17F WCI  25          
SAGINAW HB     LGT SNOW  30  27  86 E8        30.16S WCI  23          
$$

SKY/WX - Weather  TMP - Temperature  DP - Dew Point  RH - Relative Humidity
WIND - Wind Direction/Speed PRES - Barometric Pressure VSB - Visibility
WCI - Wind Chill Index E13G22 Wind - East Wind 13 mph/Gusts of 22 mph
Michigan Weather Map
What is UTC time?